Hourly Data Report for October 28, 2013

All times are specified in Local Standard Time (LST). Add 1 hour to adjust for Daylight Saving Time where and when it is observed.

GJOA HAVEN A
NUNAVUT

68°38'08.000" N
95°51'01.000" W
46.90 m
2302337
71597
YHK

Download Data

Hourly Data (October 2013)
Hourly Data Report for October 28, 2013
Temp Definition
°C
Dew Point Temp Definition
°C
Rel Hum Definition
%
Wind Dir Definition
10's deg

Wind Spd Definition
km/h
Visibility Definition
km
Stn Press Definition
kPa
Hmdx Definition


Wind Chill Definition


Weather Definition


TIME
00:00 Legend Double Dagger -18.5 -20.3 86 33 33 3.2 100.76   -31 LegendNANA
01:00 Legend Double Dagger -19.0 -20.8 86 34 32 4.8 100.79   -32 LegendNANA
02:00 Legend Double Dagger -18.9 -20.7 86 33 32 4.0 100.85   -31 LegendNANA
03:00 Legend Double Dagger -18.0 -19.8 86 34 32 1.2 100.87   -30 LegendNANA
04:00 Legend Double Dagger -19.3 -21.1 86 35 30 2.4 100.86   -32 LegendNANA
05:00 Legend Double Dagger -19.7 -21.6 85 35 30 4.0 100.86   -32 LegendNANA
06:00 Legend Double Dagger -19.9 -21.8 85 33 33 2.8 100.87   -33 LegendNANA
07:00 Legend Double Dagger -20.3 -22.3 84 33 24 9.7 100.91   -32 LegendNANA
08:00 Legend Double Dagger -20.2 -22.1 85 34 32 4.8 100.89   -33 LegendNANA
09:00 Legend Double Dagger -20.5 -22.5 84 35 21 12.9 100.95   -31 LegendNANA
10:00 Legend Double Dagger -19.8 -21.8 85 33 33 4.8 100.91   -33 LegendNANA
11:00 Legend Double Dagger -19.9 -22.0 84 33 32 9.7 100.89   -33 LegendNANA
12:00 Legend Double Dagger -19.3 -21.3 84 33 30 4.8 100.89   -32 LegendNANA
13:00 Legend Double Dagger -19.4 -21.3 85 33 26 8.1 100.86   -31 LegendNANA
14:00 Legend Double Dagger -19.1 -20.9 86 35 22 4.8 100.87   -30 LegendNANA
15:00 Legend Double Dagger -19.5 -21.4 85 33 35 3.2 100.81   -33 LegendNANA
16:00 Legend Double Dagger -19.7 -21.5 86 33 32 8.1 100.81   -33 LegendNANA
17:00 Legend Double Dagger -19.1 -20.9 86 33 26 16.1 100.80   -31 LegendNANA
18:00 Legend Double Dagger -19.2 -21.1 85 33 30 4.8 100.76   -32 LegendNANA
19:00 Legend Double Dagger -19.5 -21.4 85 34 32 6.4 100.73   -32 LegendNANA
20:00 Legend Double Dagger -20.4 -22.3 85 34 28 14.5 100.69   -33 LegendNANA
21:00 Legend Double Dagger -20.5 -22.5 84 34 24 8.1 100.69   -32 LegendNANA
22:00 Legend Double Dagger -21.2 -23.2 84 34 24 8.1 100.68   -33 LegendNANA
23:00 Legend Double Dagger -21.7 -23.7 84 35 17 8.1 100.69   -32 LegendNANA

Notes on Data Quality.

Legend

  • E = Estimated
  • M = Missing
  • NA = Not Available
  • ‡ = Partner data that is not subject to review by the National Climate Archives
Date modified: